Regional Weather Roundup
Issued by NWS

Home | Current Version | Previous Version | Text Only | Print | Product List | Glossary Off
Versions: 1 2 3 4 5 6 7 8 9 10 11 12 13 14 15 16 17 18 19 20 21 22 23 24 25 26 27 28 29 30 31 32 33 34 35 36 37 38 39 40 41 42 43 44 45 46 47 48 49 50

000
ASUS43 KLSX 010107
RWRMO

WEATHER SUMMARY FOR MISSOURI
NATIONAL WEATHER SERVICE SPRINGFIELD MO
700 PM CST SAT FEB 28 2015

NOTE: "FAIR" INDICATES FEW OR NO CLOUDS BELOW 12,000 FEET WITH NO
       SIGNIFICANT WEATHER AND/OR OBSTRUCTIONS TO VISIBILITY.
       CURRENT SKY AND/OR WEATHER CONDITIONS ARE NOT AVAILABLE FOR
       CHILLICOTHE AND FARMINGTON.

MOZ001>031-035>038-043-044-053-054-010200-
...NORTHERN AND WESTERN MISSOURI...

CITY           SKY/WX    TMP DP  RH WIND       PRES   REMARKS
KANSAS CTY INT CLOUDY    22  18  85 SE3       30.38R
KANSAS C DTWN  CLOUDY    24  18  77 E5        30.40R WCI  18
LEE`S SUMMIT   LGT SNOW  22  18  85 E5        30.38R FOG     WCI  16
ST JOSEPH      CLOUDY    23  18  81 SE5       30.40S WCI  17
CHILLICOTHE      N/A     23  18  81 SE5       30.42S WCI  17
KIRKSVILLE     LGT SNOW  20  18  92 SE8       30.42S FOG     WCI  10

$$
MOZ066>068-077>081-088>096-101>105-010200-
...SOUTHWEST MISSOURI...

CITY           SKY/WX    TMP DP  RH WIND       PRES   REMARKS
SPRINGFIELD    LGT SNOW  25  22  88 SE12      30.34R FOG     WCI  14
JOPLIN         LGT SNOW  25  23  92 VRB5      30.36S FOG     WCI  19

$$
MOZ032>034-039>042-045>050-055>058-069>072-010200-
...CENTRAL MISSOURI...

CITY           SKY/WX    TMP DP  RH WIND       PRES   REMARKS
COLUMBIA       LGT SNOW  23  21  92 E7        30.41F VSB 1   WCI  15
JEFFERSON CITY LGT SNOW  24  22  91 E5        30.44S FOG     WCI  18
ROLLA          LGT SNOW  24  21  88 E8        30.38F VSB 1   WCI  15
SEDALIA        LGT SNOW  24  21  88 E6        30.39F FOG     WCI  17
WARRENSBURG    LGT SNOW  23  21  93 NE3       30.40S
OSAGE BEACH    CLOUDY    25  21  86 E5        30.39F WCI  19

$$
MOZ051-052-059>065-010200-
...EAST CENTRAL MISSOURI...

CITY           SKY/WX    TMP DP  RH WIND       PRES   REMARKS
ST LOUIS INTL  LGT SNOW  25  21  85 E6        30.49R VSB 3/4 WCI  18
SPIRIT OF STL  LGT SNOW  24  22  91 E5        30.47F VSB 3/4 WCI  18
ST CHARLES     LGT SNOW  24  22  91 E8        30.49S VSB 3/4 WCI  15

$$
MOZ072>076-082>087-097>100-106>115-010200-
...SOUTH CENTRAL AND SOUTHEAST MISSOURI...

CITY           SKY/WX    TMP DP  RH WIND       PRES   REMARKS
CAPE GIRARDEAU CLOUDY    32  21  64 N8        30.47R WCI  25
FARMINGTON     CLOUDY    25  23  93 E5        30.47S WCI  19
POPLAR BLUFF   CLOUDY    29  20  69 N8        30.45S WCI  21
WEST PLAINS    LGT SNOW  24  21  88 E6        30.40S FOG     WCI  17

$$



USA.gov is the U.S. government's official web portal to all federal, state and local government web resources and services.